Flag for U.S.A. Weather past 2 weeks in Wright, Florida, U.S.A.

Now
75 °F

Clear.


Feels Like: 76 °F
Forecast: 72 / 85 °F
Wind: No wind

Location: Hurlburt Field

Current Time: Oct 1, 2014 at 9:51:54 PM

Latest Report: Oct 1, 2014 at 8:58 PM


Visibility: 10 mi

Pressure: 29.97 "Hg

Humidity: 77%

Dew point: 67 °F

Location of WrightLocation

Historic Weather in Wright — Graph

°F

Wright temperature yesterday

Maximum temperature yesterday: 80 °F (at 1:58 PM)
Minimum temperature yesterday: 68 °F (at 11:58 PM)
Average temperature yesterday: 74 °F

Past Weeks' High & Low Weather Summary

 TemperatureHumidityPressure
High89 °F (Sep 22, 11:58 AM)89% (Sep 26, 5:58 AM)30.19 "Hg (Sep 26, 5:58 AM)
Low60 °F (Sep 26, 1:58 AM)39% (Sep 24, 2:58 PM)29.82 "Hg (Sep 29, 5:03 PM)
Average75 °F72%29.99 "Hg
* Reported Sep 16 8:58 PM — Oct 1 8:58 PM, Wright, Weather by CustomWeather, © 2014

Note: Actual official high and low records may vary slightly from our data, if they occured in-between our weather recording intervals... More about our weather records

Advertising

Wright weather history for previous 24 hours

 ConditionsComfort  
Time TempWeatherWind HumidityBarometerVisibility
8:58 PM
Oct 1
75 °FClear.No wind77%29.97 "Hg10 mi
7:58 PM78 °FClear.5 mph71%29.94 "Hg10 mi
6:58 PM78 °FClear.3 mph68%29.93 "Hg10 mi
5:58 PM79 °FSunny.6 mph64%29.94 "Hg10 mi
4:58 PM81 °FSunny.8 mph61%29.93 "Hg10 mi
3:58 PM81 °FSunny.8 mph59%29.93 "Hg10 mi
2:58 PM83 °FSunny.8 mph55%29.92 "Hg10 mi
1:58 PM83 °FSunny.8 mph55%29.94 "Hg10 mi
12:58 PM83 °FPassing clouds.3 mph53%29.96 "Hg10 mi
12:03 PM82 °FScattered clouds.3 mph55%29.97 "Hg10 mi
11:58 AM82 °FPartly sunny.5 mph55%29.97 "Hg10 mi
10:58 AM80 °FScattered clouds.8 mph58%29.98 "Hg10 mi
9:59 AM77 °FPartly sunny.7 mph69%29.97 "Hg10 mi
9:58 AM78 °FLight rain. Partly sunny.8 mph67%29.97 "Hg10 mi
8:58 AM74 °FSunny.8 mph78%29.96 "Hg10 mi
7:58 AM69 °FScattered clouds.7 mph87%29.94 "Hg10 mi
6:58 AM65 °FSunny.5 mph88%29.93 "Hg10 mi
5:58 AM65 °FClear.6 mph88%29.93 "Hg10 mi
4:58 AM65 °FClear.5 mph88%29.90 "Hg10 mi
3:58 AM65 °FClear.5 mph88%29.89 "Hg10 mi
2:58 AM66 °FClear.5 mph88%29.88 "Hg10 mi
1:58 AM67 °FClear.3 mph87%29.89 "Hg10 mi
12:58 AM67 °FClear.3 mph87%29.89 "Hg10 mi
11:58 PM
Sep 30
68 °FClear.5 mph87%29.89 "Hg10 mi
10:58 PM69 °FClear.2 mph85%29.89 "Hg10 mi
9:58 PM72 °FClear.3 mph77%29.89 "Hg10 mi
Weather by CustomWeather, © 2014

See weather overviewHow to use our weather pages